Weather History for Sarasota, FL

Change the Weather History Date:

Thursday, October 3, 2013

  Actual Average Record
Temperature  
Mean Temperature 82 °F 79 °F  
Max Temperature 91 °F 87 °F 95 °F (1959)
Min Temperature 73 °F 72 °F 58 °F (1984)
Degree Days  
Heating Degree Days 0 0  
Month to date heating degree days 0 0  
Since 1 July heating degree days 0 0  
Cooling Degree Days 17 14  
Month to date cooling degree days 51 44  
Year to date cooling degree days 3058 2833  
Growing Degree Days 32 (Base 50)    
Moisture  
Dew Point 71 °F    
Average Humidity 75    
Maximum Humidity 87    
Minimum Humidity 52    
Precipitation  
Precipitation 0.00 in 0.14 in 3.98 in (1943)
Month to date precipitation 0.00 0.41  
Year to date precipitation 50.56 45.84  
Sea Level Pressure  
Sea Level Pressure 30.01 in    
Wind  
Wind Speed 7 mph (East)    
Max Wind Speed 13 mph    
Max Gust Speed 16 mph    
Visibility 10 miles    
Events      
T = Trace of Precipitation, MM = Missing Value Source: NWS Daily Summary

Daily Weather History Graph

Daily Weather History Graph

Search for Another Location

Airport:

Trip Planner

Search our weather history database for the weather conditions in past years. The results will help you decide how hot, cold, wet, or windy it might be!

Date:

Astronomy

Oct. 03, 2013 Rise Set
Actual Time 7:24 AM EDT 7:13 PM EDT
Civil Twilight 7:00 AM EDT 7:37 PM EDT
Nautical Twilight 6:33 AM EDT 8:04 PM EDT
Astronomical Twilight 6:06 AM EDT 8:31 PM EDT
Moon 6:01 AM EDT (10/3) 6:19 PM EDT (10/3)
Length of Visible Light 12h 36m
Length of Day
11h 49m
Waning Crescent, 2% of the Moon is Illuminated
Oct 3
Waning Crescent
Oct 4
New
Oct 11
First Quarter
Oct 18
Full
Oct 26
Last Quarter

Hourly Weather History & Observations

Time (EDT) Temp. Heat Index Dew Point Humidity Pressure Visibility Wind Dir Wind Speed Gust Speed Precip Events Conditions
12:53 AM 77.0 °F - 70.0 °F 79% 30.04 in 10.0 mi East 10.4 mph - N/A   Clear
1:53 AM 75.9 °F - 70.0 °F 82% 30.02 in 10.0 mi East 8.1 mph - N/A   Clear
2:53 AM 75.9 °F - 70.0 °F 82% 29.99 in 10.0 mi East 8.1 mph - N/A   Clear
3:53 AM 75.0 °F - 70.0 °F 84% 29.97 in 10.0 mi ENE 8.1 mph - N/A   Clear
4:53 AM 73.9 °F - 70.0 °F 87% 29.96 in 10.0 mi East 8.1 mph - N/A   Clear
5:53 AM 73.9 °F - 70.0 °F 87% 29.97 in 10.0 mi East 6.9 mph - N/A   Clear
6:53 AM 73.9 °F - 69.1 °F 85% 29.98 in 10.0 mi East 6.9 mph - N/A   Clear
7:53 AM 73.9 °F - 70.0 °F 87% 30.01 in 10.0 mi East 5.8 mph - N/A   Clear
8:53 AM 77.0 °F - 70.0 °F 79% 30.03 in 10.0 mi East 9.2 mph - N/A   Clear
9:53 AM 81.0 °F 84.1 °F 69.1 °F 67% 30.05 in 10.0 mi East 10.4 mph - N/A   Clear
10:53 AM 82.0 °F 85.5 °F 69.1 °F 65% 30.05 in 10.0 mi East 10.4 mph - N/A   Clear
11:53 AM 86.0 °F 91.5 °F 71.1 °F 61% 30.05 in 10.0 mi East 10.4 mph - N/A   Clear
12:53 PM 87.1 °F 92.8 °F 71.1 °F 59% 30.04 in 10.0 mi East 6.9 mph - N/A   Clear
1:53 PM 88.0 °F 92.9 °F 70.0 °F 55% 30.02 in 10.0 mi East 8.1 mph - N/A   Partly Cloudy
2:53 PM 90.0 °F 94.5 °F 69.1 °F 50% 30.00 in 10.0 mi SE 5.8 mph - N/A   Partly Cloudy
3:53 PM 86.0 °F 95.1 °F 75.0 °F 70% 29.98 in 10.0 mi WSW 10.4 mph - N/A   Partly Cloudy
4:53 PM 86.0 °F 93.8 °F 73.9 °F 67% 29.98 in 10.0 mi West 9.2 mph - N/A   Partly Cloudy
5:53 PM 84.0 °F 91.2 °F 73.9 °F 72% 29.99 in 10.0 mi West 4.6 mph - N/A   Overcast
6:53 PM 82.9 °F 89.4 °F 73.9 °F 74% 29.99 in 10.0 mi SW 5.8 mph - N/A   Overcast
7:53 PM 80.1 °F 84.2 °F 73.0 °F 79% 30.00 in 10.0 mi SE 6.9 mph - N/A   Partly Cloudy
8:53 PM 78.1 °F - 73.0 °F 84% 30.01 in 10.0 mi Calm Calm - N/A   Clear
9:53 PM 78.1 °F - 73.0 °F 84% 30.03 in 10.0 mi Calm Calm - N/A   Scattered Clouds
10:53 PM 79.0 °F - 72.0 °F 79% 30.04 in 10.0 mi Calm Calm - N/A   Partly Cloudy